Date String (YYYY-MM-DD hh:mm:ss) UTC,Instrument flags,Ambient pressure (hPa),Sample flow (lpm),Bypass flow (lpm),Sample temperature (°C),Ambient temperature (°C),ASC tube jacket temperature (°C),LED temperature (°C),Box temperature (°C),Sample RH (%),Span deviation,Mass concentration (μg/m³),Mass concentration (μg/m³),Mass concentration (μg/m³)
DateTimeUTC,F1_M11,P_M11,Q1_M11,Q2_M11,T1_M11,T2_M11,T3_M11,T4_M11,T5_M11,U1_M11,ZSPAN_M11,X0_M11,X2_M11,X1_M11
2022-03-02 02:00:00,,0829.6,5.01,0.00,29.7,28.9,00.0,38.7,31.4,09.0,0000.0,0001.50,0000.69,0000.49
2022-03-02 02:01:00,,0829.6,4.98,0.00,29.7,28.9,00.0,38.7,31.4,08.9,0000.0,0002.00,0000.67,0000.49
2022-03-02 02:02:00,,0829.6,5.01,0.00,29.7,28.9,00.0,38.7,31.4,08.9,0000.0,0001.99,0000.66,0000.49
2022-03-02 02:03:00,,0829.7,4.99,0.00,29.7,28.9,00.0,38.7,31.4,08.9,0000.0,0002.07,0000.69,0000.49
2022-03-02 02:04:00,,0829.7,5.00,0.00,29.7,28.9,00.0,38.7,31.5,08.8,0000.0,0002.08,0000.69,0000.49
2022-03-02 02:05:00,,0829.7,4.99,0.00,29.8,28.9,00.0,38.8,31.5,08.8,0000.0,0002.10,0000.70,0000.49
2022-03-02 02:06:00,,0829.7,5.00,0.00,29.8,29.0,00.0,38.8,31.5,08.8,0000.0,0002.15,0000.71,0000.48
2022-03-02 02:07:00,,0829.8,5.01,0.00,29.8,29.0,00.0,38.8,31.5,08.8,0000.0,0002.20,0000.73,0000.48
2022-03-02 02:08:00,,0829.8,4.99,0.00,29.8,29.0,00.0,38.8,31.6,08.7,0000.0,0002.19,0000.72,0000.47
2022-03-02 02:09:00,,0829.8,5.01,0.00,29.8,29.0,00.0,38.8,31.6,08.7,0000.0,0002.14,0000.73,0000.46
2022-03-02 02:10:00,,0829.8,5.02,0.00,29.8,29.1,00.0,38.8,31.6,08.7,0000.0,0002.14,0000.76,0000.46
2022-03-02 02:11:00,,0829.8,4.99,0.00,29.8,29.1,00.0,38.8,31.6,08.7,0000.0,0001.72,0000.73,0000.45
2022-03-02 02:12:00,,0829.8,5.02,0.00,29.9,29.1,00.0,38.8,31.6,08.7,0000.0,0001.28,0000.72,0000.45
2022-03-02 02:13:00,,0829.8,4.99,0.00,29.9,29.1,00.0,38.8,31.6,08.7,0000.0,0002.19,0000.74,0000.45
2022-03-02 02:14:00,,0829.8,5.01,0.00,29.9,29.1,00.0,38.8,31.6,08.7,0000.0,0002.26,0000.74,0000.45
2022-03-02 02:15:00,,0829.8,5.00,0.00,29.9,29.1,00.0,38.8,31.6,08.7,0000.0,0002.34,0000.76,0000.45
2022-03-02 02:16:00,,0829.8,4.98,0.00,29.9,29.1,00.0,38.9,31.6,08.7,0000.0,0002.38,0000.78,0000.45
2022-03-02 02:17:00,,0829.8,5.00,0.00,29.9,29.1,00.0,38.9,31.7,08.7,0000.0,0002.39,0000.79,0000.45
2022-03-02 02:18:00,,0829.8,4.99,0.00,29.9,29.1,00.0,38.9,31.7,09.0,0000.0,0002.39,0000.78,0000.45
2022-03-02 02:19:00,,0829.8,5.02,0.00,29.9,29.2,00.0,38.9,31.7,08.9,0000.0,0002.40,0000.79,0000.46
2022-03-02 02:20:00,,0829.8,4.99,0.00,29.9,29.2,00.0,38.9,31.7,08.9,0000.0,0002.27,0000.74,0000.45
2022-03-02 02:21:00,,0829.8,5.00,0.00,29.9,29.2,00.0,38.9,31.7,08.8,0000.0,0002.23,0000.72,0000.45
2022-03-02 02:22:00,,0829.8,5.00,0.00,29.9,29.2,00.0,38.9,31.7,08.8,0000.0,0002.23,0000.71,0000.45
2022-03-02 02:23:00,,0829.8,4.98,0.00,29.9,29.2,00.0,38.9,31.6,08.7,0000.0,0002.27,0000.73,0000.45
2022-03-02 02:24:00,,0829.8,5.00,0.00,29.9,29.2,00.0,38.9,31.6,08.7,0000.0,0001.31,0000.72,0000.45
2022-03-02 02:25:00,,0829.8,5.00,0.00,29.9,29.2,00.0,38.9,31.7,08.7,0000.0,0001.18,0000.70,0000.44
2022-03-02 02:26:00,,0829.8,5.00,0.00,30.0,29.2,00.0,38.9,31.7,08.7,0000.0,0001.22,0000.69,0000.44
2022-03-02 02:27:00,,0829.8,4.99,0.00,30.0,29.2,00.0,38.9,31.8,08.7,0000.0,0001.21,0000.68,0000.44
2022-03-02 02:28:00,,0829.8,5.01,0.00,30.0,29.2,00.0,38.9,31.8,08.7,0000.0,0001.20,0000.66,0000.44
2022-03-02 02:29:00,,0829.8,4.98,0.00,30.0,29.2,00.0,38.9,31.8,08.6,0000.0,0001.15,0000.64,0000.44
2022-03-02 02:30:00,,0829.8,5.01,0.00,30.0,29.2,00.0,39.0,31.8,08.6,0000.0,0001.16,0000.64,0000.43
2022-03-02 02:31:00,,0829.8,4.99,0.00,30.0,29.2,00.0,39.0,31.7,08.6,0000.0,0001.17,0000.64,0000.44
2022-03-02 02:32:00,,0829.8,4.99,0.00,30.0,29.2,00.0,39.0,31.7,08.6,0000.0,0001.10,0000.61,0000.44
2022-03-02 02:33:00,,0829.8,5.01,0.00,30.0,29.2,00.0,39.0,31.7,08.6,0000.0,0001.11,0000.61,0000.44
2022-03-02 02:34:00,,0829.8,4.99,0.00,30.0,29.2,00.0,39.0,31.7,08.6,0000.0,0001.14,0000.62,0000.43
2022-03-02 02:35:00,,0829.8,5.02,0.00,30.0,29.2,00.0,39.0,31.7,08.6,0000.0,0001.35,0000.63,0000.43
2022-03-02 02:36:00,,0829.8,5.00,0.00,30.0,29.2,00.0,39.0,31.7,08.5,0000.0,0001.40,0000.63,0000.43
2022-03-02 02:37:00,,0829.8,4.99,0.00,30.0,29.2,00.0,39.0,31.7,08.6,0000.0,0001.31,0000.62,0000.42
2022-03-02 02:38:00,,0829.8,5.02,0.00,30.0,29.2,00.0,39.0,31.6,08.6,0000.0,0001.38,0000.64,0000.42
2022-03-02 02:39:00,,0829.8,4.99,0.00,30.0,29.2,00.0,39.0,31.7,08.5,0000.0,0001.41,0000.65,0000.41
2022-03-02 02:40:00,,0829.8,5.01,0.00,30.0,29.2,00.0,39.0,31.6,08.6,0000.0,0001.37,0000.64,0000.41
2022-03-02 02:41:00,,0829.8,4.99,0.00,30.0,29.2,00.0,39.0,31.6,08.6,0000.0,0001.38,0000.64,0000.40
2022-03-02 02:42:00,,0829.9,5.00,0.00,30.0,29.2,00.0,39.0,31.6,08.5,0000.0,0001.63,0000.64,0000.39
2022-03-02 02:43:00,,0829.8,4.99,0.00,30.0,29.2,00.0,39.0,31.7,08.4,0000.0,0001.79,0000.64,0000.39
2022-03-02 02:44:00,,0829.9,5.02,0.00,30.0,29.2,00.0,39.0,31.6,08.3,0000.0,0001.72,0000.61,0000.39
2022-03-02 02:45:00,,0829.9,4.99,0.00,30.0,29.2,00.0,39.0,31.6,08.4,0000.0,0001.64,0000.60,0000.39
2022-03-02 02:46:00,,0829.9,5.00,0.00,30.0,29.2,00.0,39.0,31.6,08.4,0000.0,0001.38,0000.57,0000.38
2022-03-02 02:47:00,,0829.9,5.01,0.00,30.0,29.2,00.0,39.0,31.6,08.5,0000.0,0001.34,0000.57,0000.39
2022-03-02 02:48:00,,0829.9,4.99,0.00,30.0,29.2,00.0,39.0,31.7,08.5,0000.0,0001.32,0000.55,0000.39
2022-03-02 02:49:00,,0829.9,5.02,0.00,30.0,29.2,00.0,39.0,31.7,08.7,0000.0,0001.20,0000.53,0000.39
2022-03-02 02:50:00,,0829.9,5.01,0.00,30.0,29.2,00.0,39.0,31.6,08.6,0000.0,0001.24,0000.53,0000.40
2022-03-02 02:51:00,,0829.9,4.98,0.00,30.0,29.2,00.0,39.0,31.6,08.6,0000.0,0001.33,0000.55,0000.40
2022-03-02 02:52:00,,0829.9,5.00,0.00,30.0,29.2,00.0,39.0,31.6,08.5,0000.0,0001.37,0000.57,0000.40
2022-03-02 02:53:00,,0829.9,5.00,0.00,29.9,29.2,00.0,39.0,31.6,08.6,0000.0,0001.14,0000.58,0000.41
2022-03-02 02:54:00,,0829.8,5.00,0.00,30.0,29.1,00.0,39.0,31.6,08.5,0000.0,0001.08,0000.59,0000.41
2022-03-02 02:55:00,,0829.9,5.01,0.00,29.9,29.2,00.0,39.0,31.6,08.5,0000.0,0001.12,0000.61,0000.41
2022-03-02 02:56:00,,0829.8,5.00,0.00,29.9,29.2,00.0,39.0,31.6,08.6,0000.0,0001.64,0000.60,0000.41
2022-03-02 02:57:00,,0829.8,4.99,0.00,29.9,29.1,00.0,39.0,31.6,08.6,0000.0,0002.19,0000.60,0000.41
2022-03-02 02:58:00,,0829.8,5.02,0.00,29.9,29.1,00.0,39.0,31.5,08.6,0000.0,0002.19,0000.60,0000.41
2022-03-02 02:59:00,,0829.8,4.99,0.00,29.9,29.1,00.0,39.0,31.6,08.6,0000.0,0002.33,0000.62,0000.42
